timestamp,gas_concentrations,,corrected_fluxes_and_quality_flags,,,,,,,,,,storage_terms,,,turbulence,,,footprint,,
ISOdate,CO2_1_1_1,H2O_1_1_1,Tau_1_1_1,QcTau_1_1_1,H_1_1_1,QcH_1_1_1,LE_1_1_1, QcLE_1_1_1,Fc_1_1_1, QcFc_1_1_1,E_1_1_1, QcE_1_1_1,Sa_1_1_1,Sw_1_1_1,Sc_1_1_1,ustar_1_1_1,MO_length_1_1_1,ZL_1_1_1,Fetchmax_1_1_1,Fetch70_1_1_1,Fetch90_1_1_1
yyyymmddHHMM,[µmol+1mol_a-1],[mmol+1mol_a-1],[kg+1m-1s-2],[#],[W+1m-2],[#],[W+1m-2],[#],[µmol+1s-1m-2],[#],[mmol+1s-1m-2],[#],[W+1m-2],[W+1m-2],[µmol+1s-1m-2],[m+1s-1],[m],[#],[m],[m],[m]
201807300030,394.99005678284215,14.019530782644726,2.15054064471403468E-002,0,-1.4311177794104852,1,37.287253242412277,0,-2.0738776753018144,1,0.84543749161104209,0,-9999.,-9999.,-9999.,0.13879912301102745,157.41895778217676,0.13721346084560082,61.471479567803122,472.00000000000000,2022.0000000000000
201807300100,395.31867489869751,13.403852796789407,1.35400798550326003E-002,1,-1.8508258641200863,0,5.3208710914482422,0,-0.35809420681421716,2,0.12059190306194087,0,-9.7282220772054409,-20.498778623441563,0.24797121657088511,0.11003303281565757,60.640274900078111,0.35619891294345335,232.17778366915425,2257.0000000000000,-9999.
201807300130,396.23296653018724,13.932031542161516,7.81717301568941175E-003,1,3.5355950308341795,2,-3.7111486757802887,2,-0.46374098940526243,2,-8.40275395340905618E-002,2,-22.207460537713807,17.663914957924618,0.69231554422119956,8.34691793048972508E-002,-13.858669745119931,-1.5585911488803630,125.32574556534946,374.00000000000000,818.00000000000000
201807300200,397.38256857371624,13.394278205639447,2.19240640091438246E-003,1,0.11510444092959084,1,3.2899704773356397,2,-0.12424023098154229,2,7.44610386325163243E-002,2,-9.2893844737833220,-18.018344171723626,0.87179902825718725,4.41664680097338738E-002,-63.062077514587799,-0.34251963860536300,486.79682085246844,1552.0000000000000,3543.0000000000000
201807300230,397.83648306629436,12.594646716686579,4.89171459622180557E-003,1,-2.2031456955259743,1,0.52706148302269162,2,-2.92211754740201862E-002,2,1.19291594299001553E-002,2,0.60499290722027688,-26.794390340204671,0.34425210469776585,6.59598808011085946E-002,10.974207647132088,1.9682514396057353,402.58492383782118,3537.0000000000000,-9999.
201807300300,398.53326374425325,13.317186078774967,5.13060649136458033E-003,1,5.8165434866408052,1,-7.9409555754462327,1,-1.3952081222278154,1,-0.17962440015159359,1,-13.534213204133330,24.281194422563800,0.52966002719914751,6.74829419254858454E-002,-4.4525484238444930,-4.8511544275019407,199.60141815806432,563.00000000000000,1186.0000000000000
201807300330,401.51893457922353,13.192324730117310,7.44409174770113789E-003,1,-2.3876018033219339,1,5.1298591380990439,1,0.34168971241119384,1,0.11591549605832396,1,-24.250724622800114,-4.2173493473070494,2.2787125284633869,8.11207489189010589E-002,18.845081097685377,1.1461876915272597,475.62084347455379,4760.0000000000000,-9999.
201807300400,401.00256338823050,13.039295881015379,5.45379124122968070E-003,1,-1.0480368810327396,0,-2.9731471420611855,2,-6.11202821730963686E-002,2,-6.71668035802310270E-002,2,-5.2018827756145178,-5.1742831422881039,-0.39443655806408584,6.94031127838519862E-002,26.885936066711224,0.80339401040025549,987.05146391784501,-9999.,-9999.
201807300430,400.94944750494454,12.954720045652930,3.38378713205739938E-003,1,-9.0287121870463594,1,8.6768923212601567,1,1.6229549333632793,1,0.19598792041789437,1,-3.8962566781735553,-2.8619235860260921,-4.05976824721483581E-002,5.46504060974530095E-002,1.5237452231722193,14.175598171872785,1922.9086497049323,-9999.,-9999.
201807300500,399.51774124739057,12.718037890460405,2.52871903353270484E-002,1,-16.644256572388894,1,14.935292986546674,1,1.9138244240670579,1,0.33743241784522782,1,5.7420615536813342,-7.9993804818702312,-1.0932458040182538,0.14946142048413219,16.906166317527802,1.2776403351483521,270.52437447987813,2441.0000000000000,-9999.
201807300530,398.67594350014502,12.549463871830895,2.18228628524763874E-003,1,2.1578187424661617,1,-1.5442778308487586,1,-2.18822294619927527E-002,1,-3.48922027215756159E-002,1,1.5893351723120688,-5.6960877834068837,-0.64268289737523543,4.39094731795010226E-002,-3.3066830262511204,-6.5322257466233555,223.94306920155577,627.00000000000000,1313.0000000000000
201807300600,398.04151122114337,12.707826313353127,8.47333495437106515E-004,1,1.9696535393677264,1,0.37500685660641053,1,-0.18575419684889433,1,8.47263332678438452E-003,1,-1.2629285411097413,5.3527750343207883,-0.48449720604362889,2.73579849705106321E-002,-0.87625348358875166,-24.650401287462884,70.217601972419601,196.00000000000000,410.00000000000000
201807300630,396.73922319022785,12.535687673592459,1.75562680096535322E-003,1,-1.5941962239324012,1,4.0076719469186184,1,6.47878556275872375E-002,1,9.05521459104984827E-002,1,1.4557573606642902,-5.8169173713696543,-0.99432454253310865,3.93823172341248792E-002,3.2294316377828087,6.6884834307344709,140.12248645507827,924.00000000000000,3525.0000000000000
201807300700,397.25984931076425,12.145494031629525,1.03689999642009464E-003,1,0.41499433640020517,1,-1.3750000398088713,1,2.30354484436578848E-002,2,-3.10782898343223909E-002,1,7.8480852750704040,-13.164888712114390,0.39702454712858976,3.02821192228990878E-002,-5.6396470379481345,-3.8300269244968037,186.15147720917960,529.00000000000000,1120.0000000000000
201807300730,396.89769580015536,12.050013948297748,8.21276896236560784E-003,1,2.1087684567449667,1,-2.9231162149128238,1,0.13165372804941547,2,-6.60318119246681989E-002,1,-13.154212180503160,-3.2294117781874712,-0.27670083359837405,8.51415543030865085E-002,-24.665013282938386,-0.87573437533647891,14.701822755205750,53.000000000000000,130.00000000000000
201807300800,397.24968562626685,12.015792396223398,2.57568256116342664E-003,1,-1.0291230269412071,2,1.4498547830711936,2,7.80514065288364506E-003,1,3.27597084596759416E-002,2,5.7611425887842955,-1.1559984302223969,0.26866010193435902,4.77048428159773524E-002,8.8892102651752811,2.4299121469340204,368.63831811611817,3069.0000000000000,-9999.
201807300830,397.57748068460808,11.845574899824925,9.51175043859816128E-004,1,-0.26718589311641205,1,-0.25558378718283647,1,-2.87116054689057557E-004,1,-5.77492633642889917E-003,1,-0.12620264392331232,-5.7497540189440386,0.25018462499661981,2.89894455377490978E-002,7.6828105353041991,2.8114711277524371,731.80582122314547,6466.0000000000000,-9999.
201807300900,397.73214719562355,11.820572034499428,9.34299161294292572E-003,1,-0.18846866758231345,2,-0.31473495944533203,1,-0.11189829529521091,1,-7.11087543631147741E-003,1,-1.8638750404559934,-0.84488209629523892,0.11808118426218943,9.08421709289889551E-002,335.14734773329673,6.44492643193728398E-002,90.108047743135856,632.00000000000000,2524.0000000000000
201807300930,397.93728392321032,11.868810209392956,2.56391147303338838E-003,2,-0.71901941045212048,1,0.61446390484668700,1,-2.61533547673335198E-002,2,1.38849853898989142E-002,1,3.7702008158498317,1.6288411027250125,0.15652377950586169,4.76018433313084022E-002,12.640131302920272,1.7088430082217354,1498.5140158859967,-9999.,-9999.
201807301000,397.92205801010419,11.966620254003905,2.90572513505099172E-003,1,0.97923734435879262,1,0.68267073377223375,2,-8.61300386028866771E-002,1,1.54229446993568546E-002,2,-4.9461057554022281,3.3055808238720648,-1.16252870927994172E-002,5.06600800660768000E-002,-11.186697872605757,-1.9308646971591659,395.10918015756624,1130.0000000000000,2400.0000000000000
201807301030,400.56776679200971,11.943194947428372,1.39036511715716566E-003,1,-1.4198705246229586,0,5.3997937608517041,0,1.5323175788114880,0,0.12195941106026857,0,-6.2752413599524361,-0.79281300097168728,2.0223935177921462,3.50226870363821580E-002,2.5494558812350125,8.4723960743876408,4388.8869409704812,-9999.,-9999.
201807301100,404.48412154320260,12.323416060676209,7.30557039387892942E-003,0,-7.5144743032446248,1,21.132054224476143,1,6.1646330512181917,0,0.47691328234699837,1,-18.188020911282887,12.915988964811582,3.0024180475656990,8.01697823065357779E-002,5.7788121741688689,3.7377923609546277,1279.3827393462775,-9999.,-9999.
201807301130,407.02162229777542,12.228967187167447,1.60470042915501591E-002,0,-8.1989314273926652,1,23.606457148436693,0,7.0531603966213900,0,0.53264582586206055,0,-4.8132899481411577,-3.2114107337320466,1.9467624779962440,0.11877198310938786,17.221782547801809,1.2542255681167587,570.19999064581259,5779.0000000000000,-9999.
201807301200,406.31971672530631,12.588119741020135,3.24892764630607261E-002,0,-26.587404783909616,0,42.123118671426901,0,6.6302355803389164,0,0.94997505349300915,0,-11.581280545226408,12.240387879197376,-0.53949396981510123,0.16885585086618413,15.261860422754976,1.4152927232773698,224.66587581138529,1942.0000000000000,9115.0000000000000
201807301230,401.78940438640302,12.750873975559285,1.24521805772588087E-002,0,-12.468711184570868,1,18.697829789682974,0,2.4299974810579545,1,0.42189823195277976,0,12.030514526214692,5.5337648181978212,-3.4756260979892675,0.10463662584000875,7.7443107152519355,2.7891442885239810,395.07121555201081,3228.0000000000000,-9999.
201807301300,395.92952509068840,12.648411596849083,4.39558868256685678E-002,0,-11.496668912041617,1,84.395600123489459,0,-5.6294112714431250,0,1.9064505356506700,0,26.054653696151426,-3.4660770065306314,-4.4778359584530794,0.19698075098691842,56.036289791327874,0.38546449239297775,74.465227023862752,632.00000000000000,2928.0000000000000
201807301330,403.35098738497612,13.414559771969188,4.19493337722996115E-002,0,6.2868712570791363,0,112.95679502375052,0,-5.6642090630476432,0,2.5532054825405406,0,14.215657218091746,25.848196438419613,5.6595299982935643,0.19265723962468656,-95.895537092440406,-0.22524510164824724,111.32727854792762,398.00000000000000,981.00000000000000
201807301400,409.44137804702569,13.687940054489518,9.15811292747572975E-002,1,37.644065198622719,0,134.92142713184444,0,-5.6987748780611751,0,3.0508064191374826,0,8.4998202181760014,9.2082108254177797,4.6386001981894633,0.28485438177623434,-51.771008998179980,-0.41722192435460076,109.34563287369217,199.91869089403582,299.51462891446170
201807301430,403.02853897352810,14.105289742869882,0.10091838010671125,1,56.742149814815690,0,120.93738789638174,0,-5.8562928945960788,0,2.7362819490744026,0,14.095752526786523,14.019207903407862,-4.8738705012005132,0.29936330558153712,-39.871146088026755,-0.54174514954528608,95.942773178392457,175.41398874817244,262.80211975858748
201807301500,401.61520740997031,14.260543965996288,0.15146980383583580,1,82.698531656692751,0,147.48064819989202,0,-11.413427435599313,0,3.3386567142385957,0,12.474928337669830,5.2023454948694283,-1.0721031088022257,0.36711730097495776,-50.455038081657989,-0.42810392819527548,104.52729490767301,191.10923236207702,286.31645474006444
201807301530,400.94375628346029,14.019813282509135,9.27540964013312819E-002,1,89.309696316499341,0,151.43633586544541,0,-9.7940488955215912,0,3.4298798944613620,0,11.164127000448820,-8.0491236944972115,-0.50848761423798816,0.28750920898689875,-22.441179735346420,-0.96251624267232694,83.185303784552588,152.08926591005698,227.85743462610176
201807301600,398.08852974680389,14.086020592424022,0.14684045117319175,1,117.39712353765070,0,179.91455015487850,0,-12.456563345653967,0,4.0768425472827845,0,10.969235428622067,2.2089750737561569,-2.1586542922923027,0.36205558777186625,-34.093701038569989,-0.63354811422684965,91.647403090756526,167.56068228994826,251.03643562436466
201807301630,396.31482907353416,14.010939571275502,0.16189797967782565,1,153.95096317425111,0,193.30616833269596,0,-15.209751865050631,0,4.3830379814623139,0,14.240166961974380,-2.4977936382328529,-1.3379387648987375,0.38059249967680903,-30.198163655858885,-0.71527528117787675,94.327002389331426,172.45984442210653,258.37627324256374
201807301700,395.12955681920198,14.041996609835405,0.16829153147419773,1,218.29316319904606,0,250.75062854282544,0,-19.216312489064336,0,5.6880402850841554,0,9.9887672672475816,1.0310764330831699,-0.89262607832586127,0.38835189849867890,-22.625552217020907,-0.95467283153206772,87.410593621529046,159.81444331912607,239.43115809652059
201807301730,394.19703634915805,14.105797903455379,0.25110101560697512,1,213.37711867635386,0,261.59482066630153,0,-15.576212805156606,0,5.9376007078483921,0,13.615755537702139,2.1121934673900422,-0.70071986912524709,0.47490473506101333,-42.325949170002346,-0.51032523602113478,109.61336297805499,200.40818691294831,300.24798314864586
201807301800,395.91449972815781,13.210951976167967,0.12200478496273998,1,175.67205474010541,0,296.37162442129710,0,-19.685617166915861,0,6.7288761821662746,0,6.4557976192184237,-29.581915560315448,1.2890549446991451,0.33116764315708325,-17.428632398923227,-1.2393399267136123,83.861158719935602,153.32494428481314,229.70870600156752
201807301830,395.83906671901354,13.095654987095584,6.14875221518736761E-002,0,141.43996361892013,0,318.85434223310790,0,-15.330354344631560,0,7.2404301982676964,0,3.4378148742691250,-3.8089078147421467,-5.65869079764384220E-002,0.23515713119039550,-7.7502941740217857,-2.7869909857616824,68.928096785856226,126.02254441348754,188.80473584567704
201807301900,396.36429338633428,12.766369795711888,8.15117968153222239E-002,0,90.004617888506687,0,133.14458644199243,0,-9.2693674538705331,0,3.0234220592516756,0,0.16785167584063174,-10.877062898026093,0.39396847613345309,0.27074948157260625,-18.587014410153792,-1.1621016438336791,102.68987839132299,187.74984895624780,281.28348623832665
201807301930,396.20834763811280,12.638146086652725,0.12499663459805165,1,11.588700439467557,2,187.91992717373176,1,-7.8545730977400190,0,4.2667715107176125,1,-2.5329535407576302,-4.2370836202863780,-0.11700348277192985,0.33522832567342625,-273.97212480261766,-7.88401375342898530E-002,120.56643459580364,220.43389513321472,330.25014322442149
201807302000,395.08657045165108,12.645866709658947,0.26897997325004463,1,225.66678575852879,1,368.87650452482148,1,-20.154235305761766,1,8.3860449094675804,1,28.430873276733951,0.25361121234255135,-0.83772002501451726,0.49291114342769310,-44.717863835347856,-0.48302843980946114,114.58195030977465,209.49234920498503,313.85771361321889
201807302030,396.06707600450716,12.340916531409423,0.32544158381635030,1,193.51602823845445,0,200.26798911682272,1,-13.061037063173364,0,4.5536755765999848,1,3.8402293147187745,-10.007181978033211,0.73161653567064222,0.54237472987865232,-69.459445866649858,-0.31097282350147554,122.28536992335324,223.57665713827973,334.95857339422707
201807302100,394.76275903570036,12.907760051876538,0.17401876203731820,1,155.07877522690879,1,197.21301109392431,0,-12.373865417401882,0,4.4828419580915222,0,-6.8600771780199423,18.625025898545864,-0.97416990132671610,0.39645935915979719,-33.853394268844639,-0.63804532651777646,109.76722326963154,200.68949259717337,300.66943032422211
201807302130,396.17851447420543,12.987323912071082,1.62333751095888948E-002,2,-45.296559512724073,1,201.49055015769292,1,-20.403236002761773,1,4.5729124860202210,1,-35.363240976142436,2.6326398023104867,1.0631683600551576,0.12076205461303900,3.2754830571196809,6.5944471772032651,176.90102919902927,1183.0000000000000,4566.0000000000000
201807302200,395.96458984500919,14.303693603987865,5.57431348700735615E-002,0,-4.8591183735114551,2,66.097743065248110,0,-2.1999417151944627,0,1.4983712679703116,0,-26.447255875751051,43.788931335105048,-0.16131697360049446,0.22337146195481924,193.28041942642093,0.11175472437456506,102.22765913985597,186.90476474729684,280.01739609881298
201807302230,396.55985352333624,13.801786068224983,0.25112097410256984,0,-27.613750793411491,0,105.67417100111174,0,-5.1213682790638284,0,2.3926802387844184,0,-27.198545963206080,-16.787374807380836,0.45080037378491877,0.47304695500457272,323.02000384126586,6.68689237296102024E-002,97.667024285411017,178.56646969348759,267.52511067191062
201807302300,393.23673215750995,14.188994216370668,0.25897599917210445,0,27.840168612510080,0,120.92595104508737,0,-5.1695382201386924,1,2.7383393197533934,0,2.7327100604619852,12.943142605673430,-2.5154124261070518,0.48054097063234164,-335.86945858468118,-6.43107000291724823E-002,108.92328492395750,199.14650414095104,298.35775244749129
201807302330,391.96468822401357,14.656969641310470,3.51058542319805933E-002,1,9.11004825683877500E-002,1,37.068863943729063,0,-4.1960993655419934,0,0.84033500278967077,0,24.903832247706951,15.564360242429535,-0.95907708662229674,0.17729025668743992,-5154.6602200613288,-4.19038289195771893E-003,92.808281412062854,504.00000000000000,1669.0000000000000
201807310000,392.61424873029745,14.789483081634247,0.19110451192716521,0,22.723412723896921,0,103.67215678151129,0,-11.279901945553428,0,2.3483951206419205,0,-17.547272754632967,4.4224969937315315,0.49106192777407615,0.41310350889215969,-261.43669559846404,-8.26203833037082724E-002,121.84291914249420,222.76771599843045,333.74663215835722
